Location: Pic du Midi - T1M
(42.9366°N, 0.1426°E)
Time: 02:00:52
(UTC+01:00)

DX 1 - Pass Details

Date: 25 September 2021
Orbit: 618 x 630 km, 98.4° (Epoch: 19 October)

Event Time Altitude Azimuth Distance (km) Brightness Sun altitude
Rises 21:02:07 0° 13° (NNE) 2,897 ? -24.2°
Reaches altitude 10° 21:04:19 10° 13° (NNE) 1,988 ? -24.6°
Enters shadow 21:07:32 50° 11° (N) 789 ? -25.2°
